Location: *
(49.5667°N, 1.3667°W)
Time: 00:22:17
(UTC+00:00)

KORONAS-FOTON - Pass Details

Date: 20 September 2019
Orbit: 505 x 533 km, 82.4° (Epoch: 20 October)

Event Time Altitude Azimuth Distance (km) Brightness Sun altitude
Rises 19:43:15 0° 356° (N) 2,629 7.7 -15.8°
Reaches altitude 10° 19:45:30 10° 4° (N) 1,735 6.7 -16.1°
Maximum altitude 19:49:05 39° 75° (ENE) 768 4.2 -16.7°
Enters shadow 19:49:39 37° 98° (E) 804 4.2 -16.8°
